PVL2281 CYQM-CYHZ

Flight info

Callsign PVL2281
Flight time 0h 25m
Altitude 15000
Route LOKRI
Aircraft DH8D/M-SDE2E3FGRY/H

Departure

Time 2026-04-24 00:11
Airport Greater Moncton Roméo LeBlanc International Airport (CYQM)

Arrival

Time 2026-04-24 00:37
Airport Halifax / Stanfield International Airport (CYHZ)
Time Latitude Longitude Altitude Speed Heading
2026-04-23 23:47 46.11624 -64.68698 201 ft 0 kts 313°
2026-04-24 00:03 46.11630 -64.68707 201 ft 0 kts 313°
2026-04-24 00:03 46.11636 -64.68716 200 ft 1 kts 313°
2026-04-24 00:03 46.11630 -64.68706 201 ft 2 kts 313°
2026-04-24 00:03 46.11619 -64.68690 201 ft 2 kts 313°
2026-04-24 00:04 46.11609 -64.68675 201 ft 2 kts 313°
2026-04-24 00:04 46.11599 -64.68658 202 ft 2 kts 313°
2026-04-24 00:04 46.11588 -64.68643 202 ft 2 kts 313°
2026-04-24 00:04 46.11578 -64.68627 202 ft 2 kts 313°
2026-04-24 00:05 46.11568 -64.68611 203 ft 2 kts 313°
2026-04-24 00:05 46.11560 -64.68599 203 ft 0 kts 313°
2026-04-24 00:06 46.11561 -64.68601 203 ft 3 kts 307°
2026-04-24 00:06 46.11509 -64.68692 201 ft 23 kts 224°
2026-04-24 00:07 46.11413 -64.68824 203 ft 0 kts 208°
2026-04-24 00:07 46.11398 -64.68813 203 ft 9 kts 111°
2026-04-24 00:07 46.11389 -64.68659 204 ft 23 kts 132°
2026-04-24 00:07 46.11329 -64.68568 207 ft 14 kts 133°
2026-04-24 00:08 46.11324 -64.68561 207 ft 0 kts 135°
2026-04-24 00:08 46.11323 -64.68559 207 ft 0 kts 135°
2026-04-24 00:09 46.11257 -64.68561 207 ft 23 kts 219°
2026-04-24 00:09 46.11097 -64.68777 207 ft 24 kts 222°
2026-04-24 00:09 46.10962 -64.68951 209 ft 24 kts 222°
2026-04-24 00:09 46.10862 -64.69084 207 ft 20 kts 222°
2026-04-24 00:10 46.10740 -64.69239 206 ft 26 kts 220°
2026-04-24 00:10 46.10670 -64.69365 204 ft 1 kts 142°
2026-04-24 00:10 46.10679 -64.69325 205 ft 0 kts 43°
2026-04-24 00:10 46.10680 -64.69325 205 ft 1 kts 43°
2026-04-24 00:11 46.10834 -64.69122 208 ft 64 kts 41°
2026-04-24 00:11 46.11424 -64.68344 229 ft 157 kts 43°
2026-04-24 00:11 46.12264 -64.67118 798 ft 187 kts 47°
2026-04-24 00:11 46.13167 -64.65662 1695 ft 206 kts 48°
2026-04-24 00:12 46.14154 -64.64149 2691 ft 218 kts 45°
2026-04-24 00:12 46.15203 -64.62560 3787 ft 226 kts 46°
2026-04-24 00:12 46.16147 -64.60767 4904 ft 232 kts 65°
2026-04-24 00:12 46.16269 -64.58506 5967 ft 238 kts 106°
2026-04-24 00:13 46.15295 -64.56638 7084 ft 240 kts 142°
2026-04-24 00:13 46.13991 -64.55289 8028 ft 229 kts 145°
2026-04-24 00:13 46.12714 -64.53987 8949 ft 215 kts 145°
2026-04-24 00:13 46.11555 -64.52812 9779 ft 206 kts 145°
2026-04-24 00:14 46.10318 -64.51558 10027 ft 230 kts 144°
2026-04-24 00:14 46.08957 -64.50162 10321 ft 246 kts 144°
2026-04-24 00:14 46.07556 -64.48713 10858 ft 251 kts 144°
2026-04-24 00:14 46.06130 -64.47237 11451 ft 254 kts 144°
2026-04-24 00:15 46.04708 -64.45762 12048 ft 257 kts 143°
2026-04-24 00:15 46.03252 -64.44253 12655 ft 260 kts 143°
2026-04-24 00:15 46.01787 -64.42734 13274 ft 262 kts 143°
2026-04-24 00:15 46.00301 -64.41192 13879 ft 264 kts 143°
2026-04-24 00:16 45.98798 -64.39632 14401 ft 268 kts 143°
2026-04-24 00:16 45.97273 -64.38052 14880 ft 273 kts 143°
2026-04-24 00:16 45.95697 -64.36420 15043 ft 290 kts 143°
2026-04-24 00:16 45.94006 -64.34670 15105 ft 308 kts 144°
2026-04-24 00:17 45.92215 -64.32817 15103 ft 325 kts 144°
2026-04-24 00:17 45.90329 -64.30869 15110 ft 338 kts 144°
2026-04-24 00:17 45.88397 -64.28874 15106 ft 344 kts 144°
2026-04-24 00:17 45.86456 -64.26868 15075 ft 338 kts 144°
2026-04-24 00:18 45.84585 -64.24929 15063 ft 331 kts 144°
2026-04-24 00:18 45.82736 -64.23016 15077 ft 325 kts 144°
2026-04-24 00:18 45.80914 -64.21139 15098 ft 320 kts 144°
2026-04-24 00:18 45.79100 -64.19271 15088 ft 317 kts 144°
2026-04-24 00:19 45.77316 -64.17439 15087 ft 314 kts 144°
2026-04-24 00:19 45.75543 -64.15614 15085 ft 312 kts 144°
2026-04-24 00:19 45.73793 -64.13815 15087 ft 310 kts 144°
2026-04-24 00:19 45.72039 -64.12019 15084 ft 309 kts 144°
2026-04-24 00:20 45.70286 -64.10227 15077 ft 307 kts 144°
2026-04-24 00:20 45.68530 -64.08429 15076 ft 305 kts 144°
2026-04-24 00:20 45.66820 -64.06678 15069 ft 305 kts 144°
2026-04-24 00:20 45.65089 -64.04912 15075 ft 304 kts 144°
2026-04-24 00:21 45.63364 -64.03150 15074 ft 304 kts 144°
2026-04-24 00:21 45.61651 -64.01404 15070 ft 305 kts 144°
2026-04-24 00:21 45.59883 -63.99606 15067 ft 312 kts 144°
2026-04-24 00:21 45.58095 -63.97790 15079 ft 319 kts 144°
2026-04-24 00:22 45.56278 -63.95940 15081 ft 326 kts 144°
2026-04-24 00:22 45.54422 -63.94057 15084 ft 331 kts 144°
2026-04-24 00:22 45.52531 -63.92139 15075 ft 336 kts 144°
2026-04-24 00:22 45.50606 -63.90179 14979 ft 343 kts 143°
2026-04-24 00:23 45.48595 -63.88144 14572 ft 355 kts 144°
2026-04-24 00:23 45.46624 -63.86149 14086 ft 345 kts 144°
2026-04-24 00:23 45.44701 -63.84189 13666 ft 327 kts 144°
2026-04-24 00:23 45.42891 -63.82349 13266 ft 312 kts 144°
2026-04-24 00:24 45.41148 -63.80581 12875 ft 301 kts 144°
2026-04-24 00:24 45.39461 -63.78874 12499 ft 294 kts 144°
2026-04-24 00:24 45.37821 -63.77216 12129 ft 288 kts 144°
2026-04-24 00:24 45.36202 -63.75581 11764 ft 282 kts 144°
2026-04-24 00:25 45.34600 -63.73965 11402 ft 277 kts 144°
2026-04-24 00:25 45.33060 -63.72413 11056 ft 272 kts 143°
2026-04-24 00:25 45.31523 -63.70865 10711 ft 265 kts 143°
2026-04-24 00:25 45.30056 -63.69389 10381 ft 259 kts 143°
2026-04-24 00:26 45.28597 -63.67921 10056 ft 253 kts 143°
2026-04-24 00:26 45.27191 -63.66508 9740 ft 248 kts 144°
2026-04-24 00:26 45.25796 -63.65108 9433 ft 249 kts 144°
2026-04-24 00:26 45.24351 -63.63665 9112 ft 254 kts 144°
2026-04-24 00:27 45.22899 -63.62214 8784 ft 258 kts 144°
2026-04-24 00:27 45.21429 -63.60745 8451 ft 261 kts 144°
2026-04-24 00:27 45.19936 -63.59255 8114 ft 264 kts 144°
2026-04-24 00:27 45.18434 -63.57749 7771 ft 266 kts 144°
2026-04-24 00:28 45.16900 -63.56209 7422 ft 267 kts 145°
2026-04-24 00:28 45.15364 -63.54681 7077 ft 269 kts 145°
2026-04-24 00:28 45.13834 -63.53157 6732 ft 269 kts 145°
2026-04-24 00:28 45.12330 -63.51652 6376 ft 258 kts 145°
2026-04-24 00:29 45.10885 -63.50205 6045 ft 248 kts 145°
2026-04-24 00:29 45.09486 -63.48811 5736 ft 245 kts 145°
2026-04-24 00:29 45.08100 -63.47432 5428 ft 242 kts 145°
2026-04-24 00:29 45.06869 -63.45874 5107 ft 230 kts 129°
2026-04-24 00:30 45.05965 -63.44100 4826 ft 219 kts 125°
2026-04-24 00:30 45.05120 -63.42380 4678 ft 200 kts 125°
2026-04-24 00:30 45.04336 -63.40787 4445 ft 199 kts 125°
2026-04-24 00:30 45.03519 -63.39173 4092 ft 206 kts 129°
2026-04-24 00:31 45.02325 -63.38063 3612 ft 204 kts 172°
2026-04-24 00:31 45.01017 -63.38447 3368 ft 189 kts 211°
2026-04-24 00:31 44.99948 -63.39457 3134 ft 183 kts 216°
2026-04-24 00:31 44.98922 -63.40474 2897 ft 175 kts 216°
2026-04-24 00:32 44.97947 -63.41444 2673 ft 168 kts 216°
2026-04-24 00:32 44.97017 -63.42367 2466 ft 162 kts 216°
2026-04-24 00:32 44.96108 -63.43271 2277 ft 158 kts 217°
2026-04-24 00:32 44.95233 -63.44152 2102 ft 156 kts 217°
2026-04-24 00:33 44.94359 -63.45032 1890 ft 158 kts 217°
2026-04-24 00:33 44.93461 -63.45932 1679 ft 156 kts 216°
2026-04-24 00:33 44.92578 -63.46811 1466 ft 157 kts 216°
2026-04-24 00:33 44.91690 -63.47658 1285 ft 154 kts 215°
2026-04-24 00:35 44.91470 -63.47870 1237 ft 153 kts 215°
2026-04-24 00:35 44.90606 -63.48710 1035 ft 148 kts 215°
2026-04-24 00:36 44.89821 -63.49492 771 ft 136 kts 216°
2026-04-24 00:36 44.89086 -63.50234 575 ft 134 kts 217°
2026-04-24 00:36 44.88365 -63.50952 465 ft 119 kts 216°
2026-04-24 00:36 44.87805 -63.51514 465 ft 72 kts 213°
2026-04-24 00:37 44.87523 -63.51788 471 ft 22 kts 214°